User: anonymous   Login
Location: Peebles
(55.6412°N, 3.1714°W)
Time: 07:51:57
(UTC+00:00)
Language:

Cosmos 1441 Rocket - Orbit

View from above orbital plane
View from above orbital plane
View from above satellite
View from above satellite

Ground track
Ground track

The orbit data is extracted from the following two-line orbital elements,

1 13819U 83010B   21336.61941008  .00001106  00000-0  55016-4 0  9997
2 13819  81.1169  55.6945 0030546 301.4439  58.3804 15.16430009120185
Epoch (UTC): 02 December 2021 14:51:57
Eccentricity: 0.0030546
inclination: 81.1169°
perigee height: 495 km
apogee height: 538 km
right ascension of ascending node: 55.6945°
argument of perigee: 301.4439°
revolutions per day: 15.16430009
mean anomaly at epoch: 58.3804°
orbit number at epoch: 12018

The dashed part of the orbit path shows where the satellite is in the earth's shadow,  

DLR